Location: Hains Lake
(37.8540°N, 99.8578°W)
Time: 21:34:29
(UTC+00:00)

Vanguard 2 Rocket - Pass Details

Date: 25 April 2021
Orbit: 553 x 3326 km, 32.9° (Epoch: 05 May)

Event Time Altitude Azimuth Distance (km) Brightness Sun altitude
Rises 01:50:01 0° 283° (WNW) 7,312 13.9 -5.7°
Reaches altitude 10° 01:56:14 10° 274° (W) 6,178 12.5 -6.8°
Maximum altitude 02:10:18 27° 226° (SW) 4,209 10.5 -9.4°
Drops below altitude 10° 02:20:53 10° 175° (S) 4,545 10.1 -11.2°
Sets 02:24:38 0° 163° (SSE) 5,141 10.3 -11.9°
